Theta_e
316 316 317 318 319 319 317 316 315 314 314 313 314 313 312 313 313 308 301 306 309 314 315 307 307 308 307 304 303 305 298 295 298 301 303 309 308 315 313 312 308 308 309 307 306
312 312 314 316 317 319 317 316 314 313 313 313 313 312 312 312 305 300 308 312 314 315 310 301 301 303 302 301 301 298 294 299 306 306 305 308 310 312 308 310 310 308 307 304 308
311 312 312 313 316 318 317 317 314 314 313 313 313 312 312 310 298 298 308 314 320 316 311 303 301 300 299 301 300 299 294 302 305 306 307 307 308 311 307 307 311 310 314 306 306
310 310 311 311 314 317 317 317 315 314 313 313 313 313 311 305 290 299 310 310 318 316 310 305 299 295 295 295 301 296 301 302 304 306 305 304 309 307 307 310 315 314 315 310 306
309 310 310 310 311 316 317 316 315 314 314 314 314 313 306 297 297 307 305 302 310 310 306 301 296 295 292 296 297 294 299 302 302 303 304 306 305 306 308 310 313 309 306 308 308
308 308 310 309 310 312 315 317 315 314 314 313 314 313 301 290 306 304 301 302 299 303 306 303 296 298 295 295 294 299 296 297 299 299 301 300 301 304 306 310 310 307 307 309 308
308 308 310 310 310 310 311 313 315 315 314 314 314 309 299 295 307 307 304 302 302 299 295 302 301 295 296 293 297 296 292 294 297 296 296 300 295 297 304 306 305 307 307 309 309
307 308 308 311 310 310 310 312 314 315 314 314 313 306 294 305 307 303 304 301 302 301 297 297 299 297 294 296 293 289 291 289 297 298 296 296 292 302 305 303 302 304 307 308 309
307 308 309 309 311 309 309 311 312 315 313 312 304 299 292 304 298 300 298 296 297 297 296 296 296 293 294 289 287 288 285 288 291 298 295 293 292 301 302 301 301 302 305 307 307
306 310 312 313 309 309 310 312 312 307 305 305 302 292 296 294 295 292 294 297 292 291 290 290 292 288 289 287 280 284 284 285 285 291 291 291 291 299 298 295 298 300 303 303 303
304 307 309 312 310 310 307 304 297 295 296 292 293 293 295 298 295 292 292 291 292 289 284 288 284 282 286 288 288 287 285 284 288 290 288 289 291 296 300 297 296 297 298 298 299
303 303 305 308 310 308 304 296 292 292 285 293 294 295 297 297 290 294 299 287 287 284 286 284 281 287 288 288 286 285 283 284 287 288 287 288 288 293 295 295 296 296 297 299 300
302 302 303 305 308 303 299 295 299 295 285 287 290 289 290 292 288 289 293 290 285 284 284 281 284 286 285 283 283 284 283 284 283 287 285 283 283 287 292 292 293 295 296 298 298
302 301 302 304 303 300 295 297 298 294 281 282 284 287 287 289 284 290 290 290 285 282 284 283 287 284 282 281 283 279 286 285 283 282 277 284 276 284 289 290 290 292 294 295 296
301 300 301 303 298 294 295 298 298 293 270 283 283 289 287 284 285 285 292 288 283 283 283 281 282 281 280 282 283 281 286 284 283 281 280 280 276 282 288 286 289 291 293 295 294
301 300 298 296 297 295 297 298 295 280 270 279 283 281 284 285 284 285 285 290 288 283 283 283 287 284 284 283 283 286 283 282 282 281 273 279 279 280 284 287 289 291 292 292 289
299 300 296 294 289 296 297 293 279 273 282 279 279 282 282 282 282 282 280 280 280 276 278 281 282 285 286 282 284 282 279 273 271 271 272 281 278 282 286 288 288 290 289 287 288
299 297 295 295 296 295 294 284 270 276 277 281 281 283 279 281 281 280 279 278 282 281 278 275 275 282 284 281 280 280 279 274 268 270 274 277 274 281 288 289 289 287 286 285 286
297 293 291 293 295 294 287 273 274 275 280 280 280 275 277 278 279 279 278 278 280 281 276 275 275 280 280 280 282 279 276 283 276 275 274 277 280 285 288 285 283 284 284 284 283
292 287 286 293 294 291 280 274 276 282 282 281 273 277 274 277 277 278 278 282 279 282 284 279 273 279 279 279 280 280 283 275 276 270 269 275 278 280 285 284 283 282 284 282 282
289 283 287 292 294 284 272 273 274 281 283 279 277 276 276 275 276 276 277 282 283 282 283 281 277 276 276 275 277 278 278 278 278 278 272 272 277 283 282 284 285 283 283 283 283
285 278 288 291 279 277 273 274 280 280 283 281 280 277 275 276 275 276 276 280 283 283 279 282 279 274 276 277 277 277 279 279 275 274 277 276 278 280 280 281 283 282 282 283 283
283 282 286 288 273 272 275 274 278 277 277 277 276 279 279 275 271 276 277 282 283 282 280 281 277 272 274 275 275 275 277 278 280 278 275 274 276 281 281 281 282 282 282 283 282
281 277 277 280 279 275 273 272 272 279 278 279 278 278 275 273 275 274 275 280 280 281 282 280 278 275 271 274 275 273 275 276 276 274 275 276 279 283 280 281 282 283 283 282 281
281 278 282 274 273 275 276 274 273 273 277 279 275 275 273 268 271 271 272 275 277 280 277 275 271 272 273 275 276 276 276 276 274 275 272 276 277 278 281 281 282 283 283 282 280
282 278 274 278 273 275 275 272 272 274 274 272 273 275 274 270 272 270 271 272 272 275 273 276 269 271 270 275 275 274 276 276 277 277 277 277 276 282 284 284 283 283 283 282 280
287 285 281 279 273 272 273 274 274 277 276 277 276 275 272 274 277 277 278 278 276 273 271 271 271 269 265 273 271 269 273 275 276 273 273 273 275 278 278 279 276 277 279 279 278
Wind_Speed
18 19 20 20 17 14 12 14 14 14 14 15 16 17 17 18 20 15 15 11 9 14 11 4 5 10 10 9 6 2 11 13 19 19 20 3 12 12 3 11 6 9 6 4 6
17 18 20 20 19 15 10 13 14 15 13 15 16 17 18 19 19 19 14 14 15 16 9 12 11 11 9 10 7 8 11 23 17 20 18 16 18 17 8 12 13 9 8 5 11
18 18 18 21 20 16 11 12 10 14 15 14 15 17 18 18 10 5 2 9 12 15 13 4 10 12 15 11 11 10 24 18 19 17 15 17 15 13 13 19 16 14 16 13 12
18 19 19 19 20 17 12 13 10 12 14 14 14 14 16 8 11 2 14 13 11 10 14 9 9 11 13 19 18 18 23 23 23 18 8 14 17 15 19 21 17 14 8 12 15
19 21 20 20 19 19 13 14 11 11 13 14 14 12 9 9 13 16 13 11 5 5 14 16 17 17 19 13 19 23 20 18 18 21 18 15 20 21 22 17 15 7 8 11 14
19 20 20 22 19 18 17 16 15 12 12 14 14 10 5 20 8 6 5 8 7 5 8 14 8 12 11 18 16 10 13 22 21 19 12 15 22 23 18 19 20 14 15 16 16
21 21 21 19 19 18 17 17 19 17 12 15 16 10 9 24 13 15 14 13 13 12 12 12 15 8 5 13 15 17 18 15 22 13 16 8 22 31 21 20 22 23 20 20 19
23 22 22 20 19 17 17 20 21 15 15 16 17 5 13 8 10 16 15 14 13 13 13 14 10 16 11 7 4 7 10 21 20 23 11 15 29 19 19 24 24 25 23 21 22
24 23 22 21 17 16 18 19 18 13 14 13 5 4 14 10 8 7 3 8 9 9 8 6 5 9 8 16 12 12 19 23 19 14 11 16 27 19 9 13 21 21 21 20 22
24 24 22 17 15 18 18 19 15 5 3 3 2 4 8 3 3 5 1 6 4 2 4 8 7 9 12 16 20 25 23 17 19 7 9 11 25 23 9 9 16 17 17 18 21
24 24 25 22 13 12 10 5 6 2 3 9 17 21 24 14 4 4 3 4 4 5 9 10 11 20 31 23 27 20 17 23 22 6 10 17 25 29 22 20 19 18 16 17 18
25 24 24 24 16 15 5 6 2 3 15 14 26 24 23 16 15 20 14 7 6 12 9 6 22 27 17 16 21 20 20 24 22 3 9 11 21 25 21 22 22 22 21 23 21
24 26 24 24 19 4 6 5 5 4 9 8 4 5 4 3 4 6 5 6 15 16 12 17 13 3 15 17 20 22 23 27 25 13 5 4 16 25 22 21 21 24 24 23 22
24 26 23 24 2 5 2 9 7 3 7 6 2 1 2 2 5 3 4 7 6 10 16 16 18 24 19 20 17 21 22 22 18 14 14 6 15 25 22 20 17 20 20 21 23
22 24 22 14 6 4 7 10 8 3 7 2 1 1 1 4 8 2 2 7 12 12 6 7 6 4 13 22 10 18 10 18 17 15 17 14 9 25 13 21 23 19 19 18 12
21 22 19 6 5 4 10 9 2 4 11 3 2 3 7 3 3 2 2 1 2 9 18 24 13 11 18 4 6 16 10 9 3 10 11 27 17 25 18 27 23 17 14 11 8
21 20 10 3 4 9 9 3 3 6 4 2 3 4 10 8 8 2 3 5 6 5 8 11 20 20 15 20 17 6 9 5 6 8 12 4 14 25 5 4 7 14 6 4 4
19 14 4 1 5 6 3 1 7 2 6 3 4 13 15 15 6 2 5 10 9 12 8 8 8 6 9 23 10 15 15 6 8 7 8 7 13 19 11 12 9 3 6 6 6
9 3 1 3 4 3 2 4 6 5 3 7 16 15 6 2 5 7 6 9 5 11 10 5 7 1 2 1 8 12 12 15 5 2 5 8 15 18 19 10 3 7 9 8 7
3 3 2 3 2 1 2 7 6 3 4 5 10 8 12 9 6 9 9 4 5 5 8 5 9 4 4 1 2 7 2 6 6 7 9 11 12 13 5 5 5 8 9 7 6
1 4 4 3 3 2 5 8 5 4 3 6 8 11 12 11 12 11 10 9 3 5 4 3 7 4 1 7 13 6 5 6 3 7 5 6 5 7 9 9 8 9 9 6 6
3 5 4 2 2 1 4 6 3 6 3 5 5 11 16 18 13 12 12 6 8 3 7 6 5 9 11 2 2 4 12 6 5 4 8 7 10 5 8 9 4 10 9 7 6
4 4 1 4 6 7 5 5 6 5 8 4 6 6 5 6 8 7 12 5 11 6 7 5 4 4 4 2 1 4 6 7 9 2 8 7 4 9 14 13 11 9 7 5 6
3 5 3 5 3 6 6 6 6 8 7 7 6 4 5 10 12 8 13 2 7 5 16 11 5 5 10 6 2 5 7 9 9 7 11 16 16 14 7 9 8 6 6 5 5
5 6 5 6 8 14 11 9 12 8 8 8 5 9 7 4 4 5 2 7 7 2 5 4 6 9 15 13 9 6 6 10 12 16 11 10 8 2 6 2 3 4 3 3 6
8 4 3 5 5 16 18 14 19 17 9 8 12 17 9 8 12 7 2 3 5 3 5 0 4 6 7 8 10 11 13 12 15 16 19 20 20 10 14 3 3 4 2 1 5
4 4 8 11 8 9 13 21 23 21 12 16 15 12 12 22 13 11 10 8 9 6 4 4 3 5 7 10 15 8 5 5 5 9 6 6 7 11 9 12 10 10 9 7 7
Wind_Direction
356 350 332 331 316 307 309 319 327 335 333 332 329 329 325 322 311 296 264 238 210 250 277 239 196 196 212 219 201 249 237 233 226 232 238 234 244 230 267 249 218 196 255 70 123
351 342 337 332 320 298 299 311 318 323 326 326 327 328 326 324 309 280 251 258 260 261 248 212 216 187 206 216 196 203 230 237 233 244 255 251 240 249 225 221 232 228 218 162 157
348 341 335 328 327 306 286 284 298 311 317 324 325 328 328 329 298 257 2 314 301 222 230 273 248 211 227 216 202 211 237 236 242 246 252 251 240 238 238 251 250 234 233 192 189
348 341 337 325 326 316 290 279 282 298 307 315 321 321 323 322 291 71 348 337 322 197 201 210 217 215 229 225 220 248 241 240 243 241 236 239 250 235 237 249 265 250 263 192 203
354 348 340 324 325 332 295 288 286 289 295 305 311 315 321 269 260 294 338 340 330 197 211 213 208 212 231 229 233 241 253 250 246 246 243 254 248 251 247 249 250 245 210 220 221
355 348 339 328 331 322 322 291 282 285 292 300 301 308 265 268 271 286 305 337 360 294 239 226 239 233 246 243 225 244 242 258 257 251 244 238 253 250 246 250 255 235 234 236 230
352 345 341 334 324 318 312 302 294 285 289 294 295 298 239 258 277 284 279 282 288 281 277 253 243 248 274 249 254 253 253 251 256 266 254 232 261 244 245 248 246 247 240 243 233
349 348 342 338 323 316 310 304 312 269 278 287 299 296 267 274 279 279 279 276 257 249 235 267 259 247 253 306 271 255 233 247 243 231 236 190 260 250 239 229 240 248 245 243 238
354 345 338 328 326 328 314 303 298 287 296 301 288 224 271 318 266 293 246 259 289 232 225 258 206 234 223 235 254 237 252 241 255 216 207 198 256 263 253 229 236 243 245 245 245
353 355 352 329 344 336 329 303 294 324 47 131 105 272 236 243 335 308 263 256 252 213 215 210 220 220 225 214 226 236 243 259 266 197 216 219 251 257 240 235 242 250 252 250 248
358 357 356 357 333 336 340 327 2 269 22 275 281 251 283 310 312 280 312 265 223 231 212 203 218 223 224 220 239 254 256 251 251 223 208 227 243 255 252 227 248 249 251 249 251
358 354 350 349 2 348 356 43 46 301 301 241 253 271 280 290 285 271 274 276 209 234 221 216 232 240 258 252 241 244 245 256 264 199 219 237 248 264 260 246 249 253 250 250 252
357 352 346 339 329 10 66 44 315 284 277 314 234 251 279 182 264 297 223 238 247 255 234 238 244 202 267 252 238 238 237 246 258 264 226 285 270 267 258 248 252 251 252 254 251
357 355 350 337 26 347 52 338 321 289 287 276 255 180 211 239 252 246 277 217 214 266 250 257 262 261 261 253 239 253 239 254 258 262 257 182 276 270 262 259 240 244 247 248 248
355 355 354 357 320 335 329 320 310 235 302 74 180 53 246 255 321 155 325 200 242 238 218 244 264 312 244 246 210 247 255 244 249 243 264 225 250 268 260 253 253 248 235 242 244
348 349 355 2 329 359 315 299 268 219 248 316 289 353 343 275 242 289 244 284 342 255 242 254 259 251 249 316 278 264 256 249 241 244 244 242 230 272 249 251 256 254 250 244 208
339 343 337 321 322 321 315 313 254 229 12 326 334 337 325 311 311 255 232 220 246 283 271 284 248 241 228 243 256 253 233 224 227 217 239 256 213 242 63 135 291 261 224 180 144
335 344 0 331 314 318 284 235 222 264 258 0 328 315 305 309 268 271 280 278 238 242 279 287 292 214 215 224 219 214 220 207 220 215 256 157 215 237 256 282 256 197 146 122 108
350 355 357 301 341 303 233 208 235 221 331 336 317 300 285 310 280 304 268 268 265 203 211 242 250 351 193 268 227 230 232 213 273 273 276 215 246 281 265 252 188 164 151 126 109
340 317 246 281 288 242 219 244 247 252 313 295 287 260 284 296 322 322 296 274 265 224 263 264 266 277 296 179 212 234 290 173 195 222 230 237 256 251 289 251 199 172 155 117 103
67 300 193 274 261 147 223 236 280 294 255 228 275 278 290 295 283 282 266 276 331 318 327 297 226 227 219 207 216 200 210 228 268 230 245 258 237 13 339 337 250 181 150 125 101
164 240 136 194 221 196 221 205 271 261 247 290 289 278 270 271 271 255 261 263 1 301 280 229 253 233 242 30 344 323 228 211 245 183 235 281 259 18 344 302 263 154 126 106 86
220 219 107 229 232 212 231 255 258 241 256 246 261 253 358 316 310 282 300 65 356 331 346 353 238 255 219 162 84 220 253 251 242 252 241 240 169 51 46 50 82 93 90 82 83
193 231 179 205 221 213 225 233 232 215 227 223 243 278 289 290 290 288 297 340 335 358 19 0 296 283 287 339 349 212 215 235 253 256 255 243 276 308 51 62 40 68 71 64 53
200 227 201 197 217 217 208 206 216 216 218 217 237 227 209 250 271 256 273 319 316 360 30 53 296 4 314 295 267 265 257 211 219 244 246 275 273 39 37 316 109 25 28 47 44
267 215 187 242 231 216 208 202 232 227 201 215 224 240 204 212 228 256 238 220 258 295 347 170 281 324 303 333 337 269 263 249 242 235 249 257 264 350 320 304 59 353 313 13 50
245 292 235 217 194 213 205 219 229 229 223 228 215 222 196 225 227 221 225 243 249 270 282 257 252 286 271 302 327 277 276 254 101 34 341 297 343 333 328 352 32 356 24 55 40